This is the latest recevied weather packets stored in our database for station/object VA3ECP. If no packets are shown the sender has not sent any weather packets the latest 10 day(s).
| Time | Temp. | Humidity | Pressure | Rain* | Wind** | Luminosity | Snow |
|---|---|---|---|---|---|---|---|
| 1777461620 | 12.22° C | 84% | 1012.8 hPa | 0 mm | - | - | - |
| 1777459822 | 11.67° C | 84% | 1012.8 hPa | 0 mm | - | - | - |
| 1777457434 | 11.67° C | 84% | 1013 hPa | 0 mm | - | - | - |
| 1777443019 | 13.89° C | 74% | 1012.4 hPa | 0 mm | - | - | - |
| 1777442431 | 13.89° C | 74% | 1012.4 hPa | 0 mm | - | - | - |
| 1777438823 | 13.89° C | 70% | 1012.6 hPa | 0 mm | - | - | - |
| 1777434625 | 13.89° C | 68% | 1012.3 hPa | 0 mm | - | - | - |
| 1777430424 | 14.44° C | 66% | 1012.6 hPa | 0 mm | - | - | - |
| 1777429221 | 14.44° C | 67% | 1012.6 hPa | 0 mm | - | - | - |
| 1777425021 | 14.44° C | 69% | 1012.9 hPa | 0 mm | - | - | - |
| 1777419621 | 13.89° C | 74% | 1012.5 hPa | 0 mm | - | - | - |
| 1777416022 | 15° C | 72% | 1013 hPa | 0 mm | - | - | - |
| 1777411220 | 17.78° C | 54% | 1013.4 hPa | 0 mm | - | - | - |
| 1777409419 | 18.89° C | 47% | 1013.1 hPa | 0 mm | - | - | - |
| 1777408222 | 18.33° C | 48% | 1013.1 hPa | 0 mm | - | - | - |
| 1777406421 | 19.44° C | 42% | 1013.4 hPa | 0 mm | - | - | - |
| 1777405225 | 19.44° C | 42% | 1013.2 hPa | 0 mm | - | - | - |
| 1777398619 | 20° C | 39% | 1014.5 hPa | 0 mm | - | - | - |
| 1777397420 | 20.56° C | 39% | 1014.3 hPa | 0 mm | - | - | - |
| 1777396824 | 20.56° C | 40% | 1014.2 hPa | 0 mm | - | - | - |
| 1777392025 | 20.56° C | 43% | 1015 hPa | 0 mm | - | - | - |
| 1777391421 | 20.56° C | 43% | 1014.8 hPa | 0 mm | - | - | - |
| 1777386035 | 19.44° C | 47% | 1015 hPa | 0 mm | - | - | - |
| 1777383630 | 18.33° C | 53% | 1015.2 hPa | 0 mm | - | - | - |
| 1777381221 | 18.33° C | 52% | 1015.4 hPa | 0 mm | - | - | - |
* Rain latest hour (hover to see other rain measurements)
** Current wind speed in m/s (hover to see current wind gust speed)